�N,��,��,���iUTC�j,�䕗�ԍ�,�䕗��,�K��,�ܓx,�o�x,���S�C��,�ő啗��,50KT���a����,50KT���a,50KT�Z�a,30KT���a����,30KT���a,30KT�Z�a,�㗤
2001,5,9,12,0101,CIMARON,2,11.8,120.0,1004,0,0,0,0,0,0,0,0
2001,5,9,18,0101,CIMARON,2,12.3,119.6,1004,0,0,0,0,0,0,0,0
2001,5,10,0,0101,CIMARON,2,13.1,119.5,1004,0,0,0,0,0,0,0,0
2001,5,10,6,0101,CIMARON,2,14.1,119.3,1004,0,0,0,0,0,0,0,0
2001,5,10,12,0101,CIMARON,2,15.3,119.1,1002,0,0,0,0,0,0,0,0
2001,5,10,18,0101,CIMARON,2,16.2,119.1,1002,0,0,0,0,0,0,0,0
2001,5,11,0,0101,CIMARON,3,17.1,119.1,1000,35,0,0,0,9,70,70,0
2001,5,11,6,0101,CIMARON,3,17.6,119.1,998,35,0,0,0,9,100,100,0
2001,5,11,12,0101,CIMARON,3,18.0,119.2,998,35,0,0,0,9,100,100,0
2001,5,11,18,0101,CIMARON,3,18.4,119.4,996,40,0,0,0,9,110,110,0
2001,5,12,0,0101,CIMARON,3,18.9,119.9,994,40,0,0,0,2,170,130,0
2001,5,12,6,0101,CIMARON,3,19.5,120.5,994,40,0,0,0,2,170,130,0
2001,5,12,12,0101,CIMARON,3,20.0,121.0,994,40,0,0,0,2,170,130,0
2001,5,12,15,0101,CIMARON,3,20.2,121.1,992,45,0,0,0,2,170,130,0
2001,5,12,18,0101,CIMARON,3,20.4,121.3,990,45,0,0,0,2,190,140,0
2001,5,12,21,0101,CIMARON,3,20.7,121.5,990,45,0,0,0,2,190,140,0
2001,5,13,0,0101,CIMARON,4,20.9,121.7,985,50,0,0,0,2,200,150,0
2001,5,13,3,0101,CIMARON,4,21.6,122.2,985,50,0,0,0,2,200,150,0
2001,5,13,6,0101,CIMARON,3,22.1,122.6,990,45,0,0,0,2,200,150,0
2001,5,13,9,0101,CIMARON,3,22.6,123.2,990,45,0,0,0,2,200,150,0
2001,5,13,12,0101,CIMARON,3,23.1,123.9,990,45,0,0,0,2,200,150,0
2001,5,13,15,0101,CIMARON,3,23.6,124.5,990,45,0,0,0,2,200,150,0
2001,5,13,18,0101,CIMARON,3,24.4,125.2,990,45,0,0,0,2,170,130,0
2001,5,13,21,0101,CIMARON,3,25.0,125.8,990,45,0,0,0,2,170,130,0
2001,5,14,0,0101,CIMARON,3,25.6,126.5,990,45,0,0,0,2,170,130,0
2001,5,14,3,0101,CIMARON,3,26.2,127.2,992,45,0,0,0,2,170,130,0
2001,5,14,6,0101,CIMARON,3,26.7,128.0,996,40,0,0,0,2,170,130,0
2001,5,14,9,0101,CIMARON,3,27.2,128.4,998,35,0,0,0,2,170,130,0
2001,5,14,12,0101,CIMARON,6,27.2,129.1,1000,0,0,0,0,0,0,0,0
2001,5,14,18,0101,CIMARON,6,27.4,130.7,1000,0,0,0,0,0,0,0,0
2001,5,15,0,0101,CIMARON,6,27.4,131.9,1002,0,0,0,0,0,0,0,0
2001,5,15,6,0101,CIMARON,6,27.7,133.5,1002,0,0,0,0,0,0,0,0
2001,5,15,12,0101,CIMARON,6,27.7,134.6,1004,0,0,0,0,0,0,0,0
2001,6,19,18,0102,CHEBI,2,11.9,136.4,1004,0,0,0,0,0,0,0,0
2001,6,20,0,0102,CHEBI,2,12.1,134.9,1002,0,0,0,0,0,0,0,0
2001,6,20,6,0102,CHEBI,3,13.0,133.4,996,35,0,0,0,9,80,80,0
2001,6,20,12,0102,CHEBI,3,13.7,131.4,996,35,0,0,0,9,80,80,0
2001,6,20,18,0102,CHEBI,3,14.0,129.1,992,40,0,0,0,9,100,100,0
2001,6,21,0,0102,CHEBI,3,14.3,127.7,990,45,0,0,0,2,180,120,0
2001,6,21,6,0102,CHEBI,3,15.2,127.2,990,45,0,0,0,2,180,120,0
2001,6,21,12,0102,CHEBI,4,16.0,125.9,985,50,0,0,0,2,200,150,0
2001,6,21,18,0102,CHEBI,4,17.2,124.8,980,50,0,0,0,2,200,150,0
2001,6,22,0,0102,CHEBI,4,18.4,123.6,980,55,9,40,40,2,250,180,0
2001,6,22,6,0102,CHEBI,4,19.5,122.2,970,60,9,60,60,2,250,180,0
2001,6,22,12,0102,CHEBI,4,20.5,121.2,970,60,9,60,60,2,250,180,0
2001,6,22,18,0102,CHEBI,5,21.0,119.9,965,65,9,70,70,2,250,180,0
2001,6,23,0,0102,CHEBI,5,22.2,119.5,965,65,9,75,75,2,250,180,0
2001,6,23,6,0102,CHEBI,5,23.4,119.2,965,65,9,60,60,2,250,180,0
2001,6,23,12,0102,CHEBI,4,24.8,119.4,985,50,0,0,0,2,200,120,0
2001,6,23,18,0102,CHEBI,3,26.5,119.7,994,40,0,0,0,2,150,60,0
2001,6,24,0,0102,CHEBI,2,28.1,120.6,998,0,0,0,0,0,0,0,0
2001,6,24,6,0102,CHEBI,2,30.1,122.1,1000,0,0,0,0,0,0,0,0
2001,6,24,12,0102,CHEBI,6,32.6,124.4,1000,0,0,0,0,0,0,0,0
2001,6,24,18,0102,CHEBI,6,35.6,128.7,1002,0,0,0,0,0,0,0,0
2001,6,25,0,0102,CHEBI,6,37.1,131.9,1002,0,0,0,0,0,0,0,0
2001,6,25,6,0102,CHEBI,6,37.6,132.9,1002,0,0,0,0,0,0,0,0
2001,6,25,12,0102,CHEBI,6,38.2,133.8,1004,0,0,0,0,0,0,0,0
2001,6,25,18,0102,CHEBI,6,38.7,134.5,1002,0,0,0,0,0,0,0,0
2001,6,29,6,0103,DURIAN,2,16.2,116.6,1004,0,0,0,0,0,0,0,0
2001,6,29,12,0103,DURIAN,2,16.0,116.0,1000,0,0,0,0,0,0,0,0
2001,6,29,18,0103,DURIAN,2,16.3,115.4,1000,0,0,0,0,0,0,0,0
2001,6,30,0,0103,DURIAN,2,16.6,114.9,1000,0,0,0,0,0,0,0,0
2001,6,30,6,0103,DURIAN,3,17.5,114.6,996,35,0,0,0,9,100,100,0
2001,6,30,12,0103,DURIAN,3,18.1,114.4,990,45,0,0,0,9,100,100,0
2001,6,30,18,0103,DURIAN,4,19.0,113.8,985,50,0,0,0,2,180,150,0
2001,7,1,0,0103,DURIAN,4,19.5,112.7,985,50,0,0,0,2,180,150,0
2001,7,1,6,0103,DURIAN,4,19.8,112.3,985,50,0,0,0,2,180,120,0
2001,7,1,12,0103,DURIAN,4,20.2,111.5,980,55,9,30,30,2,180,120,0
2001,7,1,18,0103,DURIAN,4,20.8,110.8,970,60,9,40,40,2,210,120,0
2001,7,2,0,0103,DURIAN,4,21.4,109.8,980,50,0,0,0,2,210,120,0
2001,7,2,6,0103,DURIAN,3,21.6,108.8,980,45,0,0,0,2,180,90,0
2001,7,2,12,0103,DURIAN,3,22.0,108.0,990,40,0,0,0,2,150,90,0
2001,7,2,18,0103,DURIAN,2,22.3,107.1,992,0,0,0,0,0,0,0,0
2001,7,3,0,0103,DURIAN,2,22.7,106.5,994,0,0,0,0,0,0,0,0
2001,7,3,6,0103,DURIAN,2,22.7,105.1,994,0,0,0,0,0,0,0,0
2001,7,3,12,0103,DURIAN,2,22.8,104.4,996,0,0,0,0,0,0,0,0
2001,7,1,6,0104,UTOR,2,7.0,137.3,998,0,0,0,0,0,0,0,0
2001,7,1,12,0104,UTOR,2,7.9,137.9,996,0,0,0,0,0,0,0,0
2001,7,1,18,0104,UTOR,2,8.8,137.7,992,0,0,0,0,0,0,0,0
2001,7,2,0,0104,UTOR,3,10.6,137.0,990,35,0,0,0,9,400,400,0
2001,7,2,6,0104,UTOR,3,11.6,136.1,990,35,0,0,0,9,400,400,0
2001,7,2,12,0104,UTOR,3,12.8,134.8,990,40,0,0,0,9,400,400,0
2001,7,2,18,0104,UTOR,3,13.8,133.0,985,45,0,0,0,9,450,450,0
2001,7,3,0,0104,UTOR,3,14.5,131.3,980,45,0,0,0,9,450,450,0
2001,7,3,6,0104,UTOR,4,15.8,129.7,970,55,9,80,80,9,450,450,0
2001,7,3,12,0104,UTOR,4,16.9,128.0,970,55,4,150,80,4,600,400,0
2001,7,3,18,0104,UTOR,4,17.6,126.1,965,60,4,150,80,4,600,450,0
2001,7,4,0,0104,UTOR,4,18.3,124.3,965,60,4,180,90,4,550,425,0
2001,7,4,6,0104,UTOR,4,18.9,122.0,960,60,4,120,90,4,550,425,0
2001,7,4,12,0104,UTOR,4,19.3,120.4,965,60,4,120,60,4,500,400,0
2001,7,4,18,0104,UTOR,4,19.9,119.9,965,60,4,140,60,4,500,400,0
2001,7,5,0,0104,UTOR,4,20.4,118.7,965,60,4,160,60,4,400,375,0
2001,7,5,6,0104,UTOR,4,20.7,117.6,965,60,4,150,100,4,350,300,0
2001,7,5,12,0104,UTOR,4,21.0,116.7,965,55,4,120,50,4,350,300,0
2001,7,5,18,0104,UTOR,4,21.9,115.7,970,50,0,0,0,4,350,300,0
2001,7,6,0,0104,UTOR,3,22.9,114.5,975,45,0,0,0,4,300,180,0
2001,7,6,6,0104,UTOR,3,23.1,113.4,983,35,0,0,0,4,200,120,0
2001,7,6,12,0104,UTOR,2,23.1,112.1,986,0,0,0,0,0,0,0,0
2001,7,6,18,0104,UTOR,2,23.3,111.1,990,0,0,0,0,0,0,0,0
2001,7,7,0,0104,UTOR,2,23.7,110.0,992,0,0,0,0,0,0,0,0
2001,7,8,0,0105,TRAMI,2,12.8,128.8,1004,0,0,0,0,0,0,0,0
2001,7,8,6,0105,TRAMI,2,14.5,128.0,1004,0,0,0,0,0,0,0,0
2001,7,8,12,0105,TRAMI,2,15.8,127.4,1004,0,0,0,0,0,0,0,0
2001,7,8,18,0105,TRAMI,2,16.8,126.7,1004,0,0,0,0,0,0,0,0
2001,7,9,0,0105,TRAMI,2,17.8,126.1,1004,0,0,0,0,0,0,0,0
2001,7,9,6,0105,TRAMI,2,18.8,125.0,1002,0,0,0,0,0,0,0,0
2001,7,9,12,0105,TRAMI,2,19.2,124.7,1002,0,0,0,0,0,0,0,0
2001,7,9,18,0105,TRAMI,2,19.6,124.4,1000,0,0,0,0,0,0,0,0
2001,7,10,0,0105,TRAMI,3,20.0,124.0,998,35,0,0,0,9,60,60,0
2001,7,10,6,0105,TRAMI,3,20.4,123.4,996,35,0,0,0,9,70,70,0
2001,7,10,12,0105,TRAMI,3,20.8,122.8,994,40,0,0,0,9,70,70,0
2001,7,10,18,0105,TRAMI,3,21.3,122.3,996,35,0,0,0,9,70,70,0
2001,7,11,0,0105,TRAMI,3,21.7,121.7,998,35,0,0,0,9,60,60,0
2001,7,11,6,0105,TRAMI,3,22.4,120.8,998,35,0,0,0,9,60,60,0
2001,7,11,12,0105,TRAMI,2,23.0,120.4,1000,0,0,0,0,0,0,0,0
2001,7,21,6,0106,KONG-REY,2,24.0,151.7,1008,0,0,0,0,0,0,0,0
2001,7,21,12,0106,KONG-REY,2,24.5,151.5,1008,0,0,0,0,0,0,0,0
2001,7,21,18,0106,KONG-REY,2,24.8,151.1,1006,0,0,0,0,0,0,0,0
2001,7,22,0,0106,KONG-REY,3,25.0,150.4,1004,35,0,0,0,9,40,40,0
2001,7,22,6,0106,KONG-REY,3,25.2,149.7,1002,40,0,0,0,9,60,60,0
2001,7,22,12,0106,KONG-REY,3,25.3,149.1,1002,40,0,0,0,9,60,60,0
2001,7,22,18,0106,KONG-REY,3,25.3,148.6,1000,40,0,0,0,9,60,60,0
2001,7,23,0,0106,KONG-REY,3,25.2,147.9,998,40,0,0,0,9,70,70,0
2001,7,23,6,0106,KONG-REY,3,25.3,147.1,996,45,0,0,0,9,70,70,0
2001,7,23,12,0106,KONG-REY,3,25.3,146.3,992,45,0,0,0,9,90,90,0
2001,7,23,18,0106,KONG-REY,4,25.3,145.3,985,50,0,0,0,9,110,110,0
2001,7,24,0,0106,KONG-REY,4,25.5,144.0,980,55,9,30,30,9,110,110,0
2001,7,24,3,0106,KONG-REY,4,25.7,143.5,980,55,9,30,30,9,110,110,0
2001,7,24,6,0106,KONG-REY,4,25.9,142.9,980,55,9,30,30,9,110,110,0
2001,7,24,9,0106,KONG-REY,4,26.1,142.6,980,55,9,30,30,9,110,110,0
2001,7,24,12,0106,KONG-REY,4,26.4,142.1,980,55,9,30,30,9,110,110,0
2001,7,24,15,0106,KONG-REY,4,26.6,141.8,980,55,9,30,30,9,110,110,0
2001,7,24,18,0106,KONG-REY,4,26.8,141.4,980,55,9,30,30,4,170,70,0
2001,7,24,21,0106,KONG-REY,4,27.0,141.0,980,55,9,30,30,4,170,70,0
2001,7,25,0,0106,KONG-REY,4,27.2,140.6,980,55,9,35,35,9,120,120,0
2001,7,25,6,0106,KONG-REY,4,27.6,140.4,975,55,9,40,40,9,130,130,0
2001,7,25,12,0106,KONG-REY,4,28.1,140.4,970,60,9,50,50,2,150,120,0
2001,7,25,18,0106,KONG-REY,5,28.6,140.4,965,65,9,50,50,2,180,90,0
2001,7,26,0,0106,KONG-REY,5,29.3,140.8,960,70,9,60,60,2,180,120,0
2001,7,26,6,0106,KONG-REY,5,29.7,141.1,955,70,9,70,70,2,180,120,0
2001,7,26,12,0106,KONG-REY,5,30.2,141.8,955,70,9,70,70,9,180,180,0
2001,7,26,18,0106,KONG-REY,5,30.7,142.6,955,70,9,70,70,8,210,180,0
2001,7,27,0,0106,KONG-REY,5,31.2,143.5,955,70,9,70,70,8,240,180,0
2001,7,27,6,0106,KONG-REY,5,31.7,144.7,955,70,9,70,70,8,240,180,0
2001,7,27,12,0106,KONG-REY,5,32.1,146.0,960,70,9,85,85,8,240,210,0
2001,7,27,18,0106,KONG-REY,5,32.6,147.3,965,65,9,100,100,9,250,250,0
2001,7,28,0,0106,KONG-REY,5,33.2,148.5,970,65,9,100,100,9,250,250,0
2001,7,28,6,0106,KONG-REY,4,33.7,149.9,975,60,9,80,80,9,200,200,0
2001,7,28,12,0106,KONG-REY,4,34.5,151.9,980,60,9,60,60,9,170,170,0
2001,7,28,18,0106,KONG-REY,4,36.0,153.4,980,60,9,60,60,9,170,170,0
2001,7,29,0,0106,KONG-REY,6,37.2,155.0,984,0,0,0,0,0,0,0,0
2001,7,29,6,0106,KONG-REY,6,38.8,157.1,988,0,0,0,0,0,0,0,0
2001,7,29,12,0106,KONG-REY,6,40.0,159.4,988,0,0,0,0,0,0,0,0
2001,7,29,18,0106,KONG-REY,6,40.9,161.4,988,0,0,0,0,0,0,0,0
2001,7,30,0,0106,KONG-REY,6,42.4,163.3,990,0,0,0,0,0,0,0,0
2001,7,30,6,0106,KONG-REY,6,43.3,165.1,990,0,0,0,0,0,0,0,0
2001,7,30,12,0106,KONG-REY,6,44.9,168.0,992,0,0,0,0,0,0,0,0
2001,7,30,18,0106,KONG-REY,6,46.2,170.7,992,0,0,0,0,0,0,0,0
2001,7,31,0,0106,KONG-REY,6,48.2,172.6,994,0,0,0,0,0,0,0,0
2001,7,31,6,0106,KONG-REY,6,49.4,173.5,996,0,0,0,0,0,0,0,0
2001,7,31,12,0106,KONG-REY,6,50.3,174.6,998,0,0,0,0,0,0,0,0
2001,7,31,18,0106,KONG-REY,6,50.9,174.8,1000,0,0,0,0,0,0,0,0
2001,8,1,0,0106,KONG-REY,6,51.6,174.1,1002,0,0,0,0,0,0,0,0
2001,8,1,6,0106,KONG-REY,6,52.1,172.9,1002,0,0,0,0,0,0,0,0
2001,8,1,12,0106,KONG-REY,6,52.4,172.1,1004,0,0,0,0,0,0,0,0
2001,8,1,18,0106,KONG-REY,6,52.7,171.1,1004,0,0,0,0,0,0,0,0
2001,8,2,0,0106,KONG-REY,6,53.0,170.5,1006,0,0,0,0,0,0,0,0
2001,8,2,6,0106,KONG-REY,6,53.4,171.9,1008,0,0,0,0,0,0,0,0
2001,8,2,12,0106,KONG-REY,6,53.4,173.0,1008,0,0,0,0,0,0,0,0
2001,8,2,18,0106,KONG-REY,6,53.3,174.3,1008,0,0,0,0,0,0,0,0
2001,8,3,0,0106,KONG-REY,6,53.3,175.7,1010,0,0,0,0,0,0,0,0
2001,8,3,6,0106,KONG-REY,6,53.2,177.5,1014,0,0,0,0,0,0,0,0
2001,8,3,12,0106,KONG-REY,6,53.4,179.3,1016,0,0,0,0,0,0,0,0
2001,7,22,18,0107,YUTU,2,19.0,125.7,1004,0,0,0,0,0,0,0,0
2001,7,23,0,0107,YUTU,2,19.4,124.1,1002,0,0,0,0,0,0,0,0
2001,7,23,6,0107,YUTU,2,19.7,122.7,1002,0,0,0,0,0,0,0,0
2001,7,23,12,0107,YUTU,2,19.9,121.2,1000,0,0,0,0,0,0,0,0
2001,7,23,18,0107,YUTU,3,20.2,119.7,994,35,0,0,0,9,70,70,0
2001,7,24,0,0107,YUTU,3,20.5,118.3,985,45,0,0,0,9,80,80,0
2001,7,24,6,0107,YUTU,4,20.6,117.0,980,50,0,0,0,9,100,100,0
2001,7,24,12,0107,YUTU,4,20.6,115.8,980,50,0,0,0,9,100,100,0
2001,7,24,18,0107,YUTU,4,20.6,114.6,980,50,0,0,0,9,100,100,0
2001,7,25,0,0107,YUTU,4,20.6,113.9,975,55,9,40,40,9,100,100,0
2001,7,25,6,0107,YUTU,4,20.8,113.2,975,55,9,40,40,4,130,100,0
2001,7,25,12,0107,YUTU,4,21.2,112.4,980,50,0,0,0,4,130,100,0
2001,7,25,18,0107,YUTU,3,21.5,111.1,985,45,0,0,0,4,120,80,0
2001,7,26,0,0107,YUTU,2,21.6,110.3,996,0,0,0,0,0,0,0,0
2001,7,26,6,0107,YUTU,2,21.8,109.3,998,0,0,0,0,0,0,0,0
2001,7,25,6,0108,TORAJI,2,13.6,133.4,1002,0,0,0,0,0,0,0,0
2001,7,25,12,0108,TORAJI,2,14.3,133.0,1002,0,0,0,0,0,0,0,0
2001,7,25,18,0108,TORAJI,2,15.1,132.4,1002,0,0,0,0,0,0,0,0
2001,7,26,0,0108,TORAJI,2,15.9,131.6,1002,0,0,0,0,0,0,0,0
2001,7,26,6,0108,TORAJI,2,16.4,130.0,1002,0,0,0,0,0,0,0,0
2001,7,26,12,0108,TORAJI,2,16.6,129.1,1002,0,0,0,0,0,0,0,0
2001,7,26,18,0108,TORAJI,2,16.8,128.2,1000,0,0,0,0,0,0,0,0
2001,7,27,0,0108,TORAJI,3,17.1,127.5,994,35,0,0,0,4,100,30,0
2001,7,27,6,0108,TORAJI,3,17.3,126.8,990,45,0,0,0,4,110,40,0
2001,7,27,12,0108,TORAJI,4,17.5,126.0,980,55,4,30,20,4,130,50,0
2001,7,27,18,0108,TORAJI,5,17.9,125.5,970,65,4,40,20,4,180,80,0
2001,7,28,0,0108,TORAJI,5,18.5,124.8,965,70,4,50,30,4,180,90,0
2001,7,28,6,0108,TORAJI,5,19.1,124.3,960,75,4,50,40,4,150,100,0
2001,7,28,12,0108,TORAJI,5,19.9,123.7,960,75,4,55,40,4,150,100,0
2001,7,28,18,0108,TORAJI,5,20.6,123.1,960,75,4,70,50,4,150,100,0
2001,7,29,0,0108,TORAJI,5,21.3,122.8,960,75,4,70,40,4,150,100,0
2001,7,29,6,0108,TORAJI,5,22.2,122.4,960,75,4,60,30,4,140,80,0
2001,7,29,12,0108,TORAJI,5,23.2,122.1,960,75,4,60,30,4,140,80,0
2001,7,29,15,0108,TORAJI,5,23.5,121.6,970,65,4,60,30,4,140,80,0
2001,7,29,18,0108,TORAJI,4,23.8,121.2,975,60,4,60,30,4,140,80,0
2001,7,29,21,0108,TORAJI,4,24.2,121.1,980,50,0,0,0,3,140,80,0
2001,7,30,0,0108,TORAJI,4,24.6,121.0,980,50,0,0,0,3,140,80,0
2001,7,30,6,0108,TORAJI,3,25.3,120.7,985,45,0,0,0,3,120,60,0
2001,7,30,12,0108,TORAJI,3,25.7,120.2,994,35,0,0,0,3,90,40,0
2001,7,30,18,0108,TORAJI,2,26.2,119.9,996,0,0,0,0,0,0,0,0
2001,7,31,0,0108,TORAJI,2,26.9,119.4,1000,0,0,0,0,0,0,0,0
2001,7,31,6,0108,TORAJI,2,27.8,119.2,1000,0,0,0,0,0,0,0,0
2001,7,31,12,0108,TORAJI,2,29.1,119.7,1000,0,0,0,0,0,0,0,0
2001,7,31,18,0108,TORAJI,2,30.5,120.0,998,0,0,0,0,0,0,0,0
2001,8,1,0,0108,TORAJI,2,32.8,120.2,998,0,0,0,0,0,0,0,0
2001,8,1,6,0108,TORAJI,6,35.0,120.3,996,0,0,0,0,0,0,0,0
2001,8,1,12,0108,TORAJI,6,36.7,120.5,994,0,0,0,0,0,0,0,0
2001,8,1,18,0108,TORAJI,6,38.3,120.5,996,0,0,0,0,0,0,0,0
2001,8,2,0,0108,TORAJI,6,38.9,120.5,1000,0,0,0,0,0,0,0,0
2001,8,2,6,0108,TORAJI,6,39.8,120.4,1006,0,0,0,0,0,0,0,0
2001,8,2,12,0108,TORAJI,6,40.3,120.0,1008,0,0,0,0,0,0,0,0
2001,8,2,18,0108,TORAJI,6,40.9,119.8,1012,0,0,0,0,0,0,0,0
2001,8,1,18,0109,MAN-YI,2,10.4,152.8,1004,0,0,0,0,0,0,0,0
2001,8,2,0,0109,MAN-YI,2,11.3,152.0,1004,0,0,0,0,0,0,0,0
2001,8,2,6,0109,MAN-YI,3,11.8,150.9,1000,35,0,0,0,9,30,30,0
2001,8,2,12,0109,MAN-YI,3,12.3,150.4,996,40,0,0,0,9,50,50,0
2001,8,2,18,0109,MAN-YI,3,13.6,149.6,996,40,0,0,0,9,60,60,0
2001,8,3,0,0109,MAN-YI,3,14.8,148.8,994,45,0,0,0,9,60,60,0
2001,8,3,6,0109,MAN-YI,4,16.1,147.7,990,50,0,0,0,9,100,100,0
2001,8,3,12,0109,MAN-YI,4,17.4,146.8,985,50,0,0,0,1,140,100,0
2001,8,3,18,0109,MAN-YI,4,18.4,145.8,980,55,9,50,50,1,160,120,0
2001,8,4,0,0109,MAN-YI,4,19.8,145.2,975,60,9,70,70,2,160,120,0
2001,8,4,6,0109,MAN-YI,5,21.2,144.6,965,70,2,100,80,2,180,140,0
2001,8,4,12,0109,MAN-YI,5,22.4,144.1,960,75,2,100,80,2,180,140,0
2001,8,4,18,0109,MAN-YI,5,23.6,143.7,955,80,2,100,80,2,180,140,0
2001,8,5,0,0109,MAN-YI,5,24.7,143.6,955,80,2,100,80,2,160,120,0
2001,8,5,3,0109,MAN-YI,5,25.0,143.5,955,80,9,80,80,2,160,120,0
2001,8,5,6,0109,MAN-YI,5,25.3,143.6,955,80,9,80,80,2,160,120,0
2001,8,5,9,0109,MAN-YI,5,25.4,143.7,955,80,9,80,80,9,140,140,0
2001,8,5,12,0109,MAN-YI,5,25.5,143.9,955,80,9,80,80,9,140,140,0
2001,8,5,15,0109,MAN-YI,5,25.7,144.1,955,80,9,80,80,9,140,140,0
2001,8,5,18,0109,MAN-YI,5,25.9,144.2,955,80,9,80,80,9,140,140,0
2001,8,5,21,0109,MAN-YI,5,25.9,144.5,955,75,9,75,75,9,140,140,0
2001,8,6,0,0109,MAN-YI,5,26.1,144.6,955,75,9,75,75,9,140,140,0
2001,8,6,6,0109,MAN-YI,5,26.5,144.9,955,75,9,75,75,9,140,140,0
2001,8,6,12,0109,MAN-YI,5,26.8,145.4,955,75,9,75,75,9,140,140,0
2001,8,6,18,0109,MAN-YI,5,27.3,145.9,955,75,9,75,75,9,140,140,0
2001,8,7,0,0109,MAN-YI,5,28.0,146.6,960,70,9,75,75,9,140,140,0
2001,8,7,6,0109,MAN-YI,5,29.0,147.4,960,70,9,75,75,9,140,140,0
2001,8,7,12,0109,MAN-YI,5,30.0,148.4,965,65,9,65,65,9,140,140,0
2001,8,7,18,0109,MAN-YI,5,31.2,149.3,965,65,9,60,60,9,140,140,0
2001,8,8,0,0109,MAN-YI,4,32.6,150.1,970,60,9,60,60,9,140,140,0
2001,8,8,6,0109,MAN-YI,4,34.2,150.7,975,55,9,50,50,9,140,140,0
2001,8,8,12,0109,MAN-YI,4,36.1,151.2,980,55,9,40,40,9,130,130,0
2001,8,8,18,0109,MAN-YI,4,37.6,151.0,985,50,0,0,0,9,120,120,0
2001,8,9,0,0109,MAN-YI,3,38.8,151.4,990,45,0,0,0,3,150,100,0
2001,8,9,6,0109,MAN-YI,3,40.4,151.6,992,45,0,0,0,3,150,100,0
2001,8,9,12,0109,MAN-YI,3,42.0,153.0,996,40,0,0,0,3,150,100,0
2001,8,9,18,0109,MAN-YI,6,43.7,154.3,1002,0,0,0,0,0,0,0,0
2001,8,10,0,0109,MAN-YI,6,45.2,155.8,1004,0,0,0,0,0,0,0,0
2001,8,10,6,0109,MAN-YI,6,46.4,157.5,1008,0,0,0,0,0,0,0,0
2001,8,10,12,0109,MAN-YI,6,47.7,158.6,1008,0,0,0,0,0,0,0,0
2001,8,10,18,0109,MAN-YI,6,49.1,160.6,1010,0,0,0,0,0,0,0,0
2001,8,11,0,0109,MAN-YI,6,49.3,162.9,1010,0,0,0,0,0,0,0,0
2001,8,8,12,0110,USAGI,2,16.6,116.2,1004,0,0,0,0,0,0,0,0
2001,8,8,18,0110,USAGI,2,16.6,115.1,1004,0,0,0,0,0,0,0,0
2001,8,9,0,0110,USAGI,2,16.6,113.9,1002,0,0,0,0,0,0,0,0
2001,8,9,6,0110,USAGI,2,16.9,113.7,1000,0,0,0,0,0,0,0,0
2001,8,9,12,0110,USAGI,2,16.9,112.6,998,0,0,0,0,0,0,0,0
2001,8,9,18,0110,USAGI,2,17.2,111.6,998,0,0,0,0,0,0,0,0
2001,8,10,0,0110,USAGI,2,17.6,110.0,996,0,0,0,0,0,0,0,0
2001,8,10,6,0110,USAGI,3,17.8,108.5,992,35,0,0,0,8,120,60,0
2001,8,10,12,0110,USAGI,3,18.0,107.6,992,35,0,0,0,8,100,60,0
2001,8,10,18,0110,USAGI,3,18.5,106.1,994,35,0,0,0,9,60,60,0
2001,8,11,0,0110,USAGI,2,18.0,104.0,998,0,0,0,0,0,0,0,0
2001,8,13,12,0111,PABUK,2,16.4,147.4,1002,0,0,0,0,0,0,0,0
2001,8,13,18,0111,PABUK,2,16.8,146.5,1000,0,0,0,0,0,0,0,0
2001,8,14,0,0111,PABUK,2,18.3,146.3,1000,0,0,0,0,0,0,0,0
2001,8,14,6,0111,PABUK,2,18.9,146.1,998,0,0,0,0,0,0,0,0
2001,8,14,12,0111,PABUK,3,19.2,145.8,996,35,0,0,0,9,150,150,0
2001,8,14,18,0111,PABUK,3,19.2,144.5,992,40,0,0,0,9,160,160,0
2001,8,15,0,0111,PABUK,3,19.6,143.2,990,45,0,0,0,3,350,240,0
2001,8,15,6,0111,PABUK,4,19.8,142.4,985,50,0,0,0,3,375,260,0
2001,8,15,12,0111,PABUK,4,20.0,141.2,985,50,0,0,0,3,375,260,0
2001,8,15,18,0111,PABUK,4,20.4,140.7,980,55,9,50,50,2,375,260,0
2001,8,16,0,0111,PABUK,4,20.8,140.2,975,60,9,60,60,3,425,375,0
2001,8,16,6,0111,PABUK,4,21.1,139.5,975,60,9,60,60,2,450,325,0
2001,8,16,12,0111,PABUK,4,21.3,139.0,970,60,9,80,80,3,500,400,0
2001,8,16,18,0111,PABUK,5,21.3,138.6,965,65,9,90,90,3,500,400,0
2001,8,17,0,0111,PABUK,5,21.6,138.2,960,70,9,100,100,3,550,400,0
2001,8,17,6,0111,PABUK,5,21.8,137.6,960,70,9,120,120,3,600,400,0
2001,8,17,12,0111,PABUK,5,21.9,137.3,960,70,9,120,120,3,600,400,0
2001,8,17,18,0111,PABUK,5,22.3,137.0,960,70,9,120,120,3,600,425,0
2001,8,18,0,0111,PABUK,5,22.8,136.8,960,70,9,100,100,3,600,425,0
2001,8,18,6,0111,PABUK,5,23.5,136.4,960,70,9,100,100,3,600,425,0
2001,8,18,12,0111,PABUK,5,24.2,135.8,960,70,9,100,100,3,550,425,0
2001,8,18,18,0111,PABUK,5,24.7,135.1,960,70,9,100,100,3,500,400,0
2001,8,19,0,0111,PABUK,5,25.3,134.5,960,70,9,100,100,3,450,400,0
2001,8,19,3,0111,PABUK,5,25.9,134.1,960,70,9,100,100,3,450,400,0
2001,8,19,6,0111,PABUK,5,26.3,133.7,960,70,9,100,100,3,450,350,0
2001,8,19,9,0111,PABUK,5,26.6,133.3,960,70,9,90,90,3,350,300,0
2001,8,19,12,0111,PABUK,5,27.0,133.3,960,70,9,90,90,3,350,290,0
2001,8,19,15,0111,PABUK,5,27.3,133.1,960,70,9,90,90,2,325,290,0
2001,8,19,18,0111,PABUK,5,27.7,133.0,960,70,9,90,90,2,325,290,0
2001,8,19,21,0111,PABUK,5,28.1,132.9,960,70,9,90,90,2,325,290,0
2001,8,20,0,0111,PABUK,5,28.5,132.9,960,70,9,90,90,2,325,300,0
2001,8,20,3,0111,PABUK,5,29.0,132.9,960,70,9,90,90,2,325,300,0
2001,8,20,6,0111,PABUK,5,29.5,133.1,960,70,9,90,90,2,325,300,0
2001,8,20,9,0111,PABUK,5,29.9,133.3,960,70,1,120,90,2,325,300,0
2001,8,20,12,0111,PABUK,5,30.1,133.7,965,65,1,160,100,2,300,270,0
2001,8,20,15,0111,PABUK,5,30.5,133.9,965,65,1,160,100,2,300,270,0
2001,8,20,18,0111,PABUK,5,30.7,134.3,965,65,1,160,100,2,300,270,0
2001,8,20,21,0111,PABUK,5,31.3,134.6,965,65,1,120,80,2,300,270,0
2001,8,21,0,0111,PABUK,5,32.0,134.6,965,65,1,90,70,9,270,270,0
2001,8,21,3,0111,PABUK,4,32.4,134.7,965,60,9,60,60,9,270,270,0
2001,8,21,6,0111,PABUK,4,33.0,134.9,970,55,9,40,40,9,270,270,0
2001,8,21,9,0111,PABUK,4,33.4,135.4,970,55,9,30,30,3,300,240,0
2001,8,21,10,0111,PABUK,4,33.5,135.5,970,55,9,30,30,3,300,240,1
2001,8,21,12,0111,PABUK,4,33.7,135.7,970,55,9,30,30,3,300,240,0
2001,8,21,15,0111,PABUK,4,33.8,136.0,975,50,0,0,0,3,300,200,0
2001,8,21,18,0111,PABUK,4,34.2,136.5,975,50,0,0,0,3,300,200,0
2001,8,21,19,0111,PABUK,4,34.3,136.7,975,50,0,0,0,3,300,200,1
2001,8,21,21,0111,PABUK,4,34.5,137.0,975,50,0,0,0,3,300,200,0
2001,8,22,0,0111,PABUK,3,34.5,137.9,980,45,0,0,0,3,300,150,0
2001,8,22,3,0111,PABUK,3,34.8,138.8,982,45,0,0,0,2,300,150,1
2001,8,22,5,0111,PABUK,3,35.3,139.5,982,45,0,0,0,2,300,150,1
2001,8,22,6,0111,PABUK,3,35.5,139.8,982,45,0,0,0,2,300,150,1
2001,8,22,9,0111,PABUK,3,36.5,140.6,985,45,0,0,0,2,300,120,0
2001,8,22,12,0111,PABUK,3,37.4,141.1,986,40,0,0,0,2,300,120,0
2001,8,22,15,0111,PABUK,3,38.5,141.7,988,40,0,0,0,2,300,120,0
2001,8,22,18,0111,PABUK,2,39.9,142.2,988,0,0,0,0,0,0,0,0
2001,8,26,6,0112,WUTIP,2,15.9,139.9,1000,0,0,0,0,0,0,0,0
2001,8,26,12,0112,WUTIP,2,16.1,140.2,1000,0,0,0,0,0,0,0,0
2001,8,26,18,0112,WUTIP,2,16.3,140.1,1000,0,0,0,0,0,0,0,0
2001,8,27,0,0112,WUTIP,2,16.6,140.7,1000,0,0,0,0,0,0,0,0
2001,8,27,6,0112,WUTIP,3,17.5,141.0,996,35,0,0,0,9,60,60,0
2001,8,27,12,0112,WUTIP,3,18.0,141.5,994,40,0,0,0,9,120,120,0
2001,8,27,18,0112,WUTIP,3,18.8,142.1,990,45,0,0,0,9,120,120,0
2001,8,28,0,0112,WUTIP,4,19.6,143.0,985,55,9,40,40,3,260,180,0
2001,8,28,6,0112,WUTIP,4,20.4,143.6,975,60,9,50,50,3,260,180,0
2001,8,28,12,0112,WUTIP,5,21.2,144.4,965,70,9,70,70,3,260,180,0
2001,8,28,18,0112,WUTIP,5,22.1,144.9,955,75,9,80,80,3,260,180,0
2001,8,29,0,0112,WUTIP,5,22.8,145.4,945,80,9,90,90,9,220,220,0
2001,8,29,6,0112,WUTIP,5,23.4,145.9,935,85,9,100,100,9,230,230,0
2001,8,29,12,0112,WUTIP,5,24.0,146.5,930,90,9,100,100,9,240,240,0
2001,8,29,18,0112,WUTIP,5,24.6,146.8,930,90,9,100,100,9,240,240,0
2001,8,30,0,0112,WUTIP,5,25.1,147.1,930,90,9,100,100,9,220,220,0
2001,8,30,6,0112,WUTIP,5,25.5,147.4,935,85,9,100,100,9,200,200,0
2001,8,30,12,0112,WUTIP,5,26.0,147.8,945,80,9,80,80,9,200,200,0
2001,8,30,18,0112,WUTIP,5,26.9,147.7,955,75,9,80,80,9,180,180,0
2001,8,31,0,0112,WUTIP,5,27.6,147.7,960,70,9,70,70,9,180,180,0
2001,8,31,6,0112,WUTIP,5,28.5,148.0,960,70,9,70,70,9,180,180,0
2001,8,31,12,0112,WUTIP,5,29.4,148.5,965,65,9,60,60,9,180,180,0
2001,8,31,18,0112,WUTIP,4,30.1,149.2,970,60,9,60,60,3,180,150,0
2001,9,1,0,0112,WUTIP,4,31.1,150.0,970,60,9,50,50,3,200,150,0
2001,9,1,6,0112,WUTIP,4,32.0,151.0,975,60,9,50,50,3,200,150,0
2001,9,1,12,0112,WUTIP,4,32.7,152.3,975,60,9,40,40,3,200,150,0
2001,9,1,18,0112,WUTIP,4,33.2,153.1,980,55,9,40,40,3,200,150,0
2001,9,2,0,0112,WUTIP,4,33.9,154.3,985,50,0,0,0,9,180,180,0
2001,9,2,6,0112,WUTIP,3,34.7,155.7,990,45,0,0,0,9,180,180,0
2001,9,2,12,0112,WUTIP,3,35.2,157.1,990,45,0,0,0,9,180,180,0
2001,9,2,18,0112,WUTIP,3,36.2,157.9,994,40,0,0,0,2,210,150,0
2001,9,3,0,0112,WUTIP,6,37.4,160.0,996,0,0,0,0,0,0,0,0
2001,9,3,6,0112,WUTIP,6,38.9,162.7,996,0,0,0,0,0,0,0,0
2001,9,3,12,0112,WUTIP,6,41.0,166.5,998,0,0,0,0,0,0,0,0
2001,9,3,18,0112,WUTIP,6,42.6,170.9,998,0,0,0,0,0,0,0,0
2001,9,4,0,0112,WUTIP,6,43.9,175.0,998,0,0,0,0,0,0,0,0
2001,9,4,6,0112,WUTIP,6,46.5,180.6,996,0,0,0,0,0,0,0,0
2001,8,26,18,0113,SEPAT,2,20.5,163.3,1000,0,0,0,0,0,0,0,0
2001,8,27,0,0113,SEPAT,2,21.6,162.7,1000,0,0,0,0,0,0,0,0
2001,8,27,6,0113,SEPAT,2,22.7,162.0,1000,0,0,0,0,0,0,0,0
2001,8,27,12,0113,SEPAT,2,23.4,161.5,1000,0,0,0,0,0,0,0,0
2001,8,27,18,0113,SEPAT,3,24.0,161.7,996,35,0,0,0,9,120,120,0
2001,8,28,0,0113,SEPAT,3,24.5,161.0,994,40,0,0,0,2,200,120,0
2001,8,28,6,0113,SEPAT,3,25.1,161.2,990,45,0,0,0,2,240,120,0
2001,8,28,12,0113,SEPAT,3,26.3,161.3,990,45,0,0,0,2,240,120,0
2001,8,28,18,0113,SEPAT,3,27.8,160.9,992,45,0,0,0,2,240,120,0
2001,8,29,0,0113,SEPAT,3,29.1,160.7,994,40,0,0,0,2,200,100,0
2001,8,29,6,0113,SEPAT,3,30.4,160.7,994,40,0,0,0,2,200,100,0
2001,8,29,12,0113,SEPAT,3,32.0,160.4,994,40,0,0,0,2,200,100,0
2001,8,29,18,0113,SEPAT,3,34.1,160.0,992,40,0,0,0,2,200,100,0